period_start,C,m1,H,J0,J1,J2,J3,J4,J5,JA,JB,JC,JD,JJ,JK,JN,#
2018-07-10 00:00:38,-0.01,0.14,0.00,26.70,30.17,32.66,13.78,47.36,1022.49,2016.81,3315.00,3039.98,3497.98,599.49,591.53,20.97,0000 0000 0000 0000 000000
2018-07-10 00:05:39,0.00,0.14,0.00,26.73,30.20,32.69,13.74,47.25,1022.49,2016.43,3314.58,3039.57,3497.48,599.67,591.65,21.02,0000 0000 0000 0000 000000
2018-07-10 00:10:41,-0.01,0.14,0.00,26.76,30.23,32.71,13.79,47.29,1022.50,2016.08,3314.03,3039.06,3497.02,600.10,592.03,21.07,0000 0000 0000 0000 000000
2018-07-10 00:15:42,-0.00,0.14,0.00,26.79,30.26,32.75,13.84,47.30,1022.50,2016.00,3313.99,3038.99,3496.98,600.03,591.90,21.12,0000 0000 0000 0000 000000
2018-07-10 00:20:44,0.00,0.14,0.00,26.83,30.29,32.77,13.87,47.28,1022.48,2016.00,3313.95,3038.93,3496.77,599.93,591.63,21.17,0000 0000 0000 0000 000000
2018-07-10 00:25:45,0.04,0.14,0.00,26.85,30.32,32.81,13.77,47.27,1022.49,2016.00,3313.32,3038.30,3496.08,600.30,592.09,21.22,0000 0000 0000 0000 000000
2018-07-10 00:30:46,0.00,0.14,0.00,26.88,30.35,32.84,13.81,47.50,1022.48,2016.00,3313.02,3038.03,3496.00,600.14,591.70,21.27,0000 0000 0000 0000 000000
2018-07-10 00:35:47,0.00,0.14,0.00,26.91,30.37,32.87,13.78,47.85,1022.48,2015.97,3312.99,3038.00,3495.95,599.55,591.28,21.32,0000 0000 0000 0000 000000
2018-07-10 00:40:48,0.01,0.14,0.00,26.93,30.41,32.90,13.89,47.88,1022.47,2015.94,3312.70,3037.94,3495.40,600.55,592.24,21.37,0000 0000 0000 0000 000000
2018-07-10 00:45:50,-0.02,0.14,0.00,26.96,30.43,32.94,13.83,47.84,1022.32,2015.59,3312.08,3037.40,3495.01,600.01,591.49,21.42,0000 0000 0000 0000 000000
2018-07-10 00:50:51,-0.02,0.14,0.00,27.00,30.46,32.97,13.76,47.55,1022.07,2015.08,3311.99,3037.03,3494.94,599.54,590.87,21.47,0000 0000 0000 0000 000000
2018-07-10 00:55:52,0.02,0.14,0.00,27.03,30.49,33.00,13.81,47.75,1022.03,2015.01,3311.65,3036.99,3494.22,599.95,591.21,21.52,0000 0000 0000 0000 000000
2018-07-10 01:00:53,0.00,0.14,0.00,27.07,30.52,33.02,13.79,47.58,1022.00,2015.00,3311.08,3036.91,3494.00,600.20,591.25,21.57,0000 0000 0000 0000 000000
2018-07-10 01:05:54,0.01,0.14,0.00,27.11,30.56,33.07,13.76,47.68,1021.99,2014.99,3311.00,3036.32,3493.98,599.92,591.06,21.62,0000 0000 0000 0000 000000
2018-07-10 01:10:56,0.01,0.14,0.00,27.13,30.58,33.08,13.84,47.77,1021.98,2014.97,3310.83,3036.01,3493.54,600.36,591.27,21.67,0000 0000 0000 0000 000000
2018-07-10 01:15:57,0.00,0.14,0.00,27.15,30.61,33.10,13.84,47.81,1021.85,2014.88,3310.15,3036.00,3493.04,599.98,590.74,21.72,0000 0000 0000 0000 000000
2018-07-10 01:20:59,-0.04,0.14,0.00,27.19,30.64,33.13,13.80,47.66,1021.62,2014.48,3310.00,3035.87,3492.99,600.35,590.89,21.77,0000 0000 0000 0000 000000
2018-07-10 01:26:00,0.01,0.14,0.00,27.22,30.67,33.16,13.75,47.58,1021.57,2014.19,3309.95,3035.23,3492.76,599.60,590.13,21.82,0000 0000 0000 0000 000000
2018-07-10 01:31:01,0.01,0.14,0.00,27.26,30.71,33.20,13.83,47.51,1021.52,2014.04,3309.45,3035.01,3492.11,600.33,590.72,21.87,0000 0000 0000 0000 000000
2018-07-10 01:36:03,-0.00,0.14,0.00,27.28,30.74,33.24,13.83,47.53,1021.50,2014.01,3309.04,3035.00,3492.01,600.36,590.67,21.92,0000 0000 0000 0000 000000
2018-07-10 01:41:04,0.00,0.14,0.00,27.32,30.77,33.26,13.70,47.48,1021.50,2014.00,3309.00,3034.92,3491.96,599.45,589.81,21.97,0000 0000 0000 0000 000000
2018-07-10 01:46:05,0.03,0.14,0.00,27.36,30.80,33.28,13.74,47.33,1021.50,2014.00,3308.87,3034.45,3491.44,599.69,589.90,22.02,0000 0000 0000 0000 000000
2018-07-10 01:51:06,0.01,0.15,0.00,27.39,30.83,33.32,13.74,47.42,1021.50,2013.97,3308.20,3034.02,3491.01,599.32,589.40,22.07,0000 0000 0000 0000 000000
2018-07-10 01:56:08,-0.03,0.15,0.00,27.41,30.86,33.36,13.84,47.42,1021.50,2013.74,3308.00,3033.98,3490.91,600.43,590.58,22.12,0000 0000 0000 0000 000000
2018-07-10 02:01:09,-0.01,0.14,0.00,27.45,30.90,33.38,13.82,47.37,1021.50,2013.19,3307.86,3033.76,3490.26,600.42,590.34,22.17,0000 0000 0000 0000 000000
2018-07-10 02:06:10,0.02,0.14,0.00,27.47,30.93,33.42,13.73,47.29,1021.39,2013.09,3307.15,3033.11,3490.01,599.86,589.92,22.22,0000 0000 0000 0000 000000
2018-07-10 02:11:11,-0.00,0.14,0.00,27.49,30.96,33.43,13.77,47.33,1021.10,2013.01,3307.00,3033.01,3489.98,600.18,589.87,22.27,0000 0000 0000 0000 000000
2018-07-10 02:16:13,0.00,0.14,0.00,27.52,30.99,33.48,13.70,47.40,1021.04,2013.00,3306.98,3033.00,3489.72,600.10,589.79,22.32,0000 0000 0000 0000 000000
2018-07-10 02:21:14,0.02,0.15,0.00,27.55,31.02,33.50,13.70,47.34,1021.01,2013.00,3306.58,3032.92,3489.05,599.39,588.98,22.37,0000 0000 0000 0000 000000
2018-07-10 02:26:15,0.02,0.15,0.00,27.56,31.05,33.54,13.77,47.33,1021.01,2012.98,3306.06,3032.30,3489.00,599.73,589.20,22.42,0000 0000 0000 0000 000000
2018-07-10 02:31:17,0.00,0.15,0.00,27.60,31.08,33.56,13.74,47.24,1021.01,2012.90,3306.00,3032.02,3488.89,599.98,589.34,22.47,0000 0000 0000 0000 000000
2018-07-10 02:36:18,-0.03,0.15,0.00,27.63,31.11,33.59,13.72,47.34,1021.01,2012.59,3305.78,3032.00,3488.21,600.22,589.67,22.52,0000 0000 0000 0000 000000
2018-07-10 02:41:19,-0.02,0.15,0.00,27.66,31.13,33.63,13.77,47.71,1020.93,2012.08,3305.09,3031.85,3487.99,599.80,589.16,22.57,0000 0000 0000 0000 000000
2018-07-10 02:46:20,0.02,0.15,0.00,27.70,31.16,33.66,13.74,47.58,1020.90,2012.00,3304.95,3031.20,3487.71,599.87,589.05,22.62,0000 0000 0000 0000 000000
2018-07-10 02:51:22,0.01,0.15,0.00,27.73,31.20,33.67,13.78,47.68,1020.75,2012.00,3304.68,3031.00,3487.04,600.16,589.29,22.67,0000 0000 0000 0000 000000
2018-07-10 02:56:23,0.01,0.15,0.00,27.77,31.23,33.71,13.75,47.53,1020.59,2011.99,3304.17,3030.98,3486.99,599.98,589.02,22.72,0000 0000 0000 0000 000000
2018-07-10 03:01:24,0.01,0.15,0.00,27.81,31.26,33.73,13.82,47.33,1020.55,2011.95,3304.00,3030.62,3486.70,600.21,588.99,22.77,0000 0000 0000 0000 000000
2018-07-10 03:06:26,-0.01,0.15,0.00,27.84,31.30,33.78,13.60,47.36,1020.53,2011.75,3303.95,3030.06,3486.06,599.81,588.64,22.82,0000 0000 0000 0000 000000
2018-07-10 03:11:27,-0.01,0.15,0.00,27.87,31.33,33.80,13.81,47.38,1020.53,2011.50,3303.22,3029.99,3486.00,600.23,588.84,22.87,0000 0000 0000 0000 000000
2018-07-10 03:16:28,-0.02,0.15,0.00,27.91,31.36,33.83,13.83,47.39,1020.52,2011.06,3302.98,3029.89,3485.69,600.37,588.89,22.92,0000 0000 0000 0000 000000
2018-07-10 03:21:30,0.02,0.15,0.00,27.94,31.40,33.87,13.65,47.17,1020.52,2011.00,3302.91,3029.24,3485.06,599.34,587.87,22.97,0000 0000 0000 0000 000000
2018-07-10 03:26:31,0.01,0.15,0.00,27.97,31.43,33.90,13.66,47.17,1020.52,2010.99,3302.38,3029.01,3484.99,599.73,588.06,23.02,0000 0000 0000 0000 000000
2018-07-10 03:31:32,0.01,0.15,0.00,28.01,31.46,33.94,13.69,47.00,1020.51,2010.96,3302.00,3028.99,3484.46,600.38,588.62,23.07,0000 0000 0000 0000 000000
2018-07-10 03:36:34,-0.01,0.15,0.00,28.05,31.50,33.97,13.68,47.23,1020.43,2010.78,3301.88,3028.69,3484.02,600.01,588.23,23.13,0000 0000 0000 0000 000000
2018-07-10 03:41:35,-0.02,0.15,0.00,28.09,31.53,33.99,13.72,47.35,1020.24,2010.20,3301.23,3028.10,3483.97,600.22,588.22,23.18,0000 0000 0000 0000 000000
2018-07-10 03:46:36,0.00,0.15,0.00,28.12,31.56,34.04,13.72,47.52,1020.07,2010.02,3301.00,3028.00,3483.73,600.12,587.92,23.23,0000 0000 0000 0000 000000
2018-07-10 03:51:37,0.00,0.15,0.00,28.15,31.60,34.06,13.71,47.24,1020.06,2010.00,3300.96,3027.99,3483.06,600.08,587.93,23.28,0000 0000 0000 0000 000000
2018-07-10 03:56:39,0.02,0.15,0.00,28.18,31.63,34.10,13.74,47.06,1020.05,2010.00,3300.43,3027.65,3482.99,600.16,587.93,23.33,0000 0000 0000 0000 000000
2018-07-10 04:01:40,0.02,0.15,0.00,28.21,31.66,34.14,13.70,47.14,1020.04,2009.98,3300.03,3027.09,3482.57,599.51,587.27,23.38,0000 0000 0000 0000 000000
2018-07-10 04:06:41,0.00,0.15,0.00,28.26,31.70,34.17,13.76,46.98,1020.04,2009.92,3300.00,3027.00,3482.04,600.03,587.62,23.43,0000 0000 0000 0000 000000
2018-07-10 04:11:43,-0.04,0.15,0.00,28.30,31.73,34.20,13.70,47.00,1020.04,2009.51,3299.66,3026.97,3482.00,600.16,587.71,23.48,0000 0000 0000 0000 000000
2018-07-10 04:16:44,-0.00,0.15,0.00,28.33,31.76,34.23,13.71,47.01,1019.96,2009.07,3299.05,3026.55,3481.70,599.93,587.46,23.53,0000 0000 0000 0000 000000
2018-07-10 04:21:45,0.01,0.15,0.00,28.37,31.79,34.27,13.62,46.86,1019.85,2009.02,3299.00,3026.04,3481.08,599.80,587.11,23.58,0000 0000 0000 0000 000000
2018-07-10 04:26:46,0.00,0.15,0.00,28.41,31.83,34.31,13.64,46.63,1019.82,2009.00,3298.83,3026.01,3481.00,599.78,587.29,23.63,0000 0000 0000 0000 000000
2018-07-10 04:31:47,0.01,0.15,0.00,28.45,31.86,34.35,13.58,46.73,1019.62,2009.00,3298.15,3025.98,3480.87,599.62,586.64,23.68,0000 0000 0000 0000 000000
2018-07-10 04:36:49,0.02,0.15,0.00,28.48,31.89,34.36,13.62,46.88,1019.55,2008.96,3298.01,3025.59,3480.19,599.71,586.58,23.73,0000 0000 0000 0000 000000
2018-07-10 04:41:50,0.00,0.15,0.00,28.51,31.93,34.41,13.63,46.86,1019.55,2008.84,3297.94,3025.10,3480.00,600.14,586.99,23.78,0000 0000 0000 0000 000000
2018-07-10 04:46:51,-0.03,0.15,0.00,28.53,31.96,34.44,13.67,46.66,1019.55,2008.44,3297.32,3025.00,3479.98,600.12,586.85,23.83,0000 0000 0000 0000 000000
2018-07-10 04:51:52,-0.01,0.15,0.00,28.57,31.99,34.47,13.68,46.77,1019.45,2008.13,3297.02,3024.99,3479.53,599.76,586.40,23.88,0000 0000 0000 0000 000000
2018-07-10 04:56:53,0.01,0.15,0.00,28.61,32.02,34.49,13.66,46.67,1019.20,2008.02,3296.91,3024.54,3479.02,600.05,586.45,23.93,0000 0000 0000 0000 000000
2018-07-10 05:01:55,0.02,0.15,0.00,28.64,32.06,34.54,13.65,46.74,1019.08,2008.00,3296.36,3024.03,3478.95,599.90,586.23,23.98,0000 0000 0000 0000 000000
2018-07-10 05:06:56,0.01,0.15,0.00,28.66,32.09,34.56,13.65,46.82,1019.06,2008.00,3296.00,3024.00,3478.25,599.76,586.06,24.03,0000 0000 0000 0000 000000
2018-07-10 05:11:57,0.00,0.15,0.00,28.68,32.13,34.60,13.70,46.75,1019.07,2007.95,3295.77,3023.96,3477.99,600.22,586.47,24.08,0000 0000 0000 0000 000000
2018-07-10 05:16:58,0.00,0.15,0.00,28.73,32.16,34.63,13.70,46.98,1019.06,2007.70,3295.10,3023.38,3477.66,600.05,585.99,24.13,0000 0000 0000 0000 000000
2018-07-10 05:22:00,-0.02,0.15,0.00,28.77,32.19,34.66,13.63,47.03,1019.06,2007.32,3294.99,3023.03,3477.10,599.99,586.04,24.18,0000 0000 0000 0000 000000
2018-07-10 05:27:01,-0.01,0.15,0.00,28.75,32.22,34.72,13.66,46.87,1019.06,2007.04,3294.51,3022.98,3477.00,599.94,585.93,24.23,0000 0000 0000 0000 000000
2018-07-10 05:32:02,0.01,0.15,0.00,28.63,32.25,34.85,13.73,46.77,1018.74,2007.00,3294.03,3022.83,3476.86,600.18,586.25,24.28,0000 0000 0000 0000 000000
2018-07-10 05:37:03,0.02,0.15,0.00,28.45,32.25,35.22,13.65,46.89,1018.61,2007.00,3293.97,3022.37,3476.27,599.95,586.34,24.33,0000 0000 0000 0000 000000
2018-07-10 05:42:05,0.01,0.15,0.00,28.25,32.25,35.30,13.65,47.03,1018.61,2007.00,3293.72,3022.11,3476.03,599.76,586.57,24.38,0000 0000 0000 0000 000000
2018-07-10 05:47:06,0.01,0.15,0.00,28.07,32.23,35.28,13.73,47.04,1018.57,2007.00,3293.20,3022.14,3476.04,600.04,587.17,24.43,0000 0000 0000 0000 000000
2018-07-10 05:52:07,0.00,0.15,0.00,27.94,32.21,35.24,13.78,47.17,1018.57,2007.00,3293.06,3022.18,3476.03,599.86,587.45,24.48,0000 0000 0000 0000 000000
2018-07-10 05:57:08,-0.02,0.15,0.00,27.82,32.17,35.13,13.71,47.30,1018.53,2007.01,3293.08,3022.68,3476.30,600.22,587.84,24.53,0000 0000 0000 0000 000000
2018-07-10 06:02:09,-0.00,0.15,0.00,27.71,32.13,35.00,13.81,47.34,1018.21,2007.06,3293.15,3022.93,3476.75,600.12,587.76,24.58,0000 0000 0000 0000 000000
2018-07-10 06:07:11,0.03,0.15,0.00,27.63,32.08,34.85,13.75,47.41,1018.10,2007.37,3293.42,3022.99,3476.98,599.78,587.49,24.63,0000 0000 0000 0000 000000
2018-07-10 06:12:12,0.03,0.15,0.00,27.57,32.03,34.71,13.70,47.48,1018.08,2007.92,3293.93,3023.09,3477.01,599.65,587.45,24.68,0000 0000 0000 0000 000000
2018-07-10 06:17:13,-0.02,0.15,0.00,27.53,31.98,34.63,13.76,47.33,1018.08,2007.99,3293.99,3023.70,3477.48,599.88,587.67,24.73,0000 0000 0000 0000 000000
2018-07-10 06:22:15,-0.00,0.15,0.00,27.51,31.93,34.51,13.80,47.32,1018.08,2007.99,3293.99,3023.98,3477.96,599.84,587.79,24.78,0000 0000 0000 0000 000000
2018-07-10 06:27:16,0.00,0.15,0.00,27.48,31.87,34.42,13.90,47.38,1018.08,2008.04,3294.09,3024.00,3477.99,600.39,588.25,24.83,0000 0000 0000 0000 000000
2018-07-10 06:32:17,0.03,0.15,0.00,27.47,31.82,34.34,13.70,47.46,1018.03,2008.39,3294.60,3024.11,3478.10,599.81,587.74,24.88,0000 0000 0000 0000 000000
2018-07-10 06:37:18,0.00,0.16,0.00,27.47,31.77,34.26,13.80,47.41,1017.74,2008.90,3294.92,3024.74,3478.76,600.20,587.85,24.93,0000 0000 0000 0000 000000
2018-07-10 06:42:20,0.00,0.16,0.00,27.47,31.72,34.19,13.73,47.40,1017.60,2008.99,3294.98,3024.97,3478.99,599.77,587.52,24.98,0000 0000 0000 0000 000000
2018-07-10 06:47:21,0.00,0.16,0.00,27.47,31.67,34.14,13.78,47.41,1017.59,2008.99,3294.99,3024.99,3479.00,600.07,587.81,25.03,0000 0000 0000 0000 000000
2018-07-10 06:52:22,-0.01,0.16,0.00,27.49,31.63,34.13,13.76,47.43,1017.59,2009.04,3295.03,3025.09,3479.22,600.17,587.83,25.08,0000 0000 0000 0000 000000
2018-07-10 06:57:23,0.02,0.16,0.00,27.50,31.59,34.09,13.69,47.24,1017.59,2009.45,3295.25,3025.56,3479.85,599.49,587.20,25.13,0000 0000 0000 0000 000000
2018-07-10 07:02:24,0.01,0.16,0.00,27.51,31.55,34.09,13.84,47.36,1017.57,2009.89,3295.75,3025.94,3479.98,599.86,587.59,25.18,0000 0000 0000 0000 000000
2018-07-10 07:07:25,0.00,0.16,0.00,27.52,31.51,34.08,13.76,47.19,1017.48,2009.96,3295.80,3025.98,3479.99,600.09,587.65,25.23,0000 0000 0000 0000 000000
2018-07-10 07:12:26,0.00,0.16,0.00,27.55,31.48,34.04,13.64,47.08,1017.36,2009.99,3295.91,3025.99,3479.99,599.88,587.27,25.28,0000 0000 0000 0000 000000
2018-07-10 07:17:28,0.00,0.16,0.00,27.57,31.45,34.01,13.78,47.07,1017.14,2009.99,3295.97,3026.01,3480.06,600.25,587.42,25.33,0000 0000 0000 0000 000000
2018-07-10 07:22:29,-0.00,0.16,0.00,27.61,31.42,33.98,13.75,47.06,1017.11,2010.01,3295.99,3026.13,3480.42,600.06,587.22,25.38,0000 0000 0000 0000 000000
2018-07-10 07:27:30,-0.00,0.16,0.00,27.64,31.40,33.95,13.78,47.20,1017.12,2010.12,3295.99,3026.53,3480.86,600.04,587.27,25.43,0000 0000 0000 0000 000000
2018-07-10 07:32:32,0.01,0.16,0.00,27.67,31.37,33.93,13.71,47.02,1017.11,2010.33,3295.99,3026.89,3480.97,599.92,586.99,25.48,0000 0000 0000 0000 000000
2018-07-10 07:37:33,0.04,0.16,0.00,27.71,31.36,33.84,13.69,47.10,1017.11,2010.71,3295.99,3026.97,3480.98,600.02,587.04,25.53,0000 0000 0000 0000 000000
2018-07-10 07:42:34,0.01,0.16,0.00,27.75,31.35,33.77,13.77,46.98,1017.06,2010.91,3296.00,3026.99,3480.99,600.25,587.13,25.58,0000 0000 0000 0000 000000
2018-07-10 07:47:35,0.00,0.16,0.00,27.78,31.33,33.72,13.74,46.99,1016.97,2010.96,3296.02,3026.99,3480.99,600.19,586.92,25.63,0000 0000 0000 0000 000000
2018-07-10 07:52:37,0.00,0.16,0.00,27.82,31.32,33.68,13.68,46.90,1016.81,2010.98,3296.03,3026.99,3480.99,600.26,586.80,25.68,0000 0000 0000 0000 000000
2018-07-10 07:57:38,0.00,0.16,0.00,27.85,31.32,33.67,13.71,46.98,1016.64,2010.99,3296.03,3027.00,3481.01,600.02,586.39,25.73,0000 0000 0000 0000 000000
2018-07-10 08:02:39,0.00,0.16,0.00,27.88,31.30,33.65,13.62,46.90,1016.63,2010.99,3296.01,3027.00,3481.00,600.02,586.33,25.78,0000 0000 0000 0000 000000
2018-07-10 08:07:41,0.00,0.16,0.00,27.91,31.30,33.64,13.68,47.23,1016.62,2010.99,3296.00,3027.00,3481.00,600.09,586.50,25.83,0000 0000 0000 0000 000000
2018-07-10 08:12:42,0.00,0.16,0.00,27.93,31.30,33.65,13.63,46.89,1016.60,2010.99,3296.00,3027.00,3481.00,600.01,586.26,25.88,0000 0000 0000 0000 000000
2018-07-10 08:17:44,0.00,0.16,0.00,27.96,31.30,33.66,13.66,46.87,1016.57,2010.99,3295.99,3027.00,3481.00,599.80,586.01,25.93,0000 0000 0000 0000 000000
2018-07-10 08:22:45,0.00,0.16,0.00,28.00,31.30,33.66,13.69,46.79,1016.55,2010.99,3295.97,3027.00,3480.98,600.36,586.35,25.98,0000 0000 0000 0000 000000
2018-07-10 08:27:46,0.00,0.16,0.00,28.01,31.30,33.66,13.62,46.94,1016.55,2010.99,3295.96,3027.00,3480.95,600.24,586.41,26.03,0000 0000 0000 0000 000000
2018-07-10 08:32:48,0.00,0.16,0.00,28.04,31.30,33.68,13.73,46.81,1016.36,2010.99,3295.76,3026.99,3480.89,600.33,586.25,26.08,0000 0000 0000 0000 000000
2018-07-10 08:37:49,0.01,0.16,0.00,28.07,31.32,33.68,13.66,46.85,1016.22,2010.99,3295.32,3026.98,3480.66,599.79,585.51,26.13,0000 0000 0000 0000 000000
2018-07-10 08:42:50,0.01,0.16,0.00,28.10,31.32,33.69,13.62,46.69,1016.16,2010.99,3295.15,3026.95,3480.36,600.03,585.72,26.18,0000 0000 0000 0000 000000
2018-07-10 08:47:52,0.00,0.16,0.00,28.13,31.32,33.70,13.65,46.93,1016.17,2010.99,3295.03,3026.93,3480.09,599.73,585.29,26.23,0000 0000 0000 0000 000000
2018-07-10 08:52:53,0.01,0.16,0.00,28.16,31.35,33.72,13.68,46.75,1016.14,2010.99,3295.01,3026.77,3480.03,599.96,585.44,26.28,0000 0000 0000 0000 000000
2018-07-10 08:57:54,0.01,0.16,0.00,28.19,31.35,33.73,13.62,46.81,1016.14,2010.98,3295.00,3026.46,3480.00,599.61,585.17,26.33,0000 0000 0000 0000 000000
2018-07-10 09:02:55,0.01,0.16,0.00,28.21,31.37,33.75,13.54,46.77,1016.13,2010.96,3294.73,3026.04,3479.99,599.49,584.91,26.38,0000 0000 0000 0000 000000
2018-07-10 09:07:57,0.00,0.16,0.00,28.24,31.37,33.76,13.66,46.77,1016.13,2010.94,3294.22,3026.01,3479.93,600.34,585.74,26.44,0000 0000 0000 0000 000000
2018-07-10 09:12:58,0.01,0.16,0.00,28.25,31.39,33.78,13.69,46.75,1016.12,2010.93,3294.07,3026.00,3479.71,599.88,585.21,26.49,0000 0000 0000 0000 000000
2018-07-10 09:17:59,-0.01,0.16,0.00,28.28,31.40,33.80,13.65,46.61,1016.11,2010.69,3294.00,3025.99,3479.11,600.06,585.33,26.54,0000 0000 0000 0000 000000
2018-07-10 09:23:01,-0.02,0.16,0.00,28.31,31.42,33.82,13.64,46.73,1016.08,2010.37,3293.96,3025.93,3479.00,599.93,585.12,26.59,0000 0000 0000 0000 000000
2018-07-10 09:28:02,-0.01,0.16,0.00,28.34,31.44,33.84,13.65,46.83,1016.03,2010.15,3293.90,3025.70,3479.00,600.28,585.52,26.64,0000 0000 0000 0000 000000
2018-07-10 09:33:03,0.02,0.16,0.00,28.36,31.45,33.85,13.65,46.73,1015.95,2010.14,3293.42,3025.40,3478.98,600.09,585.10,26.69,0000 0000 0000 0000 000000
2018-07-10 09:38:04,0.01,0.16,0.00,28.37,31.47,33.87,13.66,46.65,1015.76,2010.10,3293.08,3025.10,3478.87,599.96,584.89,26.74,0000 0000 0000 0000 000000
2018-07-10 09:43:05,0.01,0.16,0.00,28.40,31.49,33.89,13.53,46.78,1015.65,2010.02,3293.00,3025.01,3478.22,599.83,584.62,26.79,0000 0000 0000 0000 000000
2018-07-10 09:48:06,0.00,0.16,0.00,28.43,31.51,33.92,13.59,46.73,1015.64,2010.00,3292.99,3025.00,3478.01,599.97,584.72,26.84,0000 0000 0000 0000 000000
2018-07-10 09:53:08,0.00,0.16,0.00,28.46,31.52,33.93,13.57,46.72,1015.63,2010.00,3292.81,3024.96,3477.99,599.80,584.56,26.89,0000 0000 0000 0000 000000
2018-07-10 09:58:09,0.01,0.16,0.00,28.48,31.55,33.95,13.56,46.73,1015.58,2010.00,3292.14,3024.80,3477.87,599.63,584.22,26.94,0000 0000 0000 0000 000000
2018-07-10 10:03:10,0.01,0.16,0.00,28.51,31.57,33.96,13.57,46.67,1015.25,2009.98,3292.05,3024.50,3477.47,599.86,584.19,26.99,0000 0000 0000 0000 000000
2018-07-10 10:08:11,0.01,0.16,0.00,28.54,31.59,33.99,13.61,46.63,1015.15,2009.95,3292.00,3024.06,3477.02,599.87,584.12,27.04,0000 0000 0000 0000 000000
2018-07-10 10:13:12,-0.03,0.16,0.00,28.57,31.61,34.01,13.60,46.64,1015.15,2009.68,3291.98,3024.00,3477.00,599.99,584.11,27.09,0000 0000 0000 0000 000000
2018-07-10 10:18:13,-0.01,0.16,0.00,28.60,31.64,34.03,13.65,46.68,1015.09,2009.38,3291.59,3024.00,3476.91,600.30,584.41,27.14,0000 0000 0000 0000 000000
2018-07-10 10:23:15,-0.00,0.16,0.00,28.60,31.66,34.06,13.59,46.77,1014.73,2009.12,3291.03,3023.89,3476.23,599.94,583.84,27.19,0000 0000 0000 0000 000000
2018-07-10 10:28:16,0.01,0.16,0.00,28.60,31.68,34.09,13.60,46.75,1014.68,2009.05,3291.00,3023.55,3476.02,600.13,583.89,27.24,0000 0000 0000 0000 000000
2018-07-10 10:33:17,0.00,0.16,0.00,28.62,31.70,34.12,13.62,46.65,1014.67,2009.01,3290.97,3023.13,3476.00,600.00,583.77,27.29,0000 0000 0000 0000 000000
2018-07-10 10:38:18,0.00,0.16,0.00,28.62,31.72,34.15,13.54,46.69,1014.68,2009.00,3290.63,3023.01,3475.96,600.04,583.79,27.34,0000 0000 0000 0000 000000
2018-07-10 10:43:20,0.01,0.16,0.00,28.63,31.75,34.16,13.55,46.71,1014.67,2009.00,3290.11,3023.00,3475.49,599.80,583.66,27.39,0000 0000 0000 0000 000000
2018-07-10 10:48:21,0.00,0.16,0.00,28.66,31.76,34.16,13.65,46.60,1014.66,2009.00,3290.00,3022.97,3475.05,600.15,583.88,27.44,0000 0000 0000 0000 000000
2018-07-10 10:53:22,0.00,0.17,0.00,28.69,31.78,34.17,13.53,46.48,1014.67,2009.00,3289.98,3022.79,3475.00,599.82,583.50,27.49,0000 0000 0000 0000 000000
2018-07-10 10:58:23,0.00,0.17,0.00,28.73,31.80,34.18,13.71,46.73,1014.66,2008.94,3289.94,3022.42,3475.00,599.98,583.64,27.54,0000 0000 0000 0000 000000
2018-07-10 11:03:25,0.01,0.17,0.00,28.77,31.82,34.21,13.56,46.77,1014.66,2008.84,3289.47,3022.08,3474.73,599.94,583.40,27.59,0000 0000 0000 0000 000000
2018-07-10 11:08:26,-0.04,0.16,0.00,28.79,31.85,34.25,13.58,46.87,1014.64,2008.37,3289.04,3021.99,3474.08,599.84,583.41,27.64,0000 0000 0000 0000 000000
2018-07-10 11:13:27,-0.01,0.16,0.00,28.80,31.87,34.28,13.57,46.64,1014.64,2008.07,3288.98,3021.91,3473.99,600.25,583.68,27.69,0000 0000 0000 0000 000000
2018-07-10 11:18:28,0.02,0.16,0.00,28.82,31.90,34.32,13.56,46.77,1014.54,2008.00,3288.71,3021.40,3473.81,599.96,583.24,27.74,0000 0000 0000 0000 000000
2018-07-10 11:23:30,0.03,0.17,0.00,28.82,31.92,34.35,13.54,46.83,1014.24,2008.00,3288.29,3021.15,3473.29,600.02,583.19,27.79,0000 0000 0000 0000 000000
2018-07-10 11:28:31,0.00,0.17,0.00,28.82,31.94,34.38,13.63,46.82,1014.20,2008.00,3288.00,3020.99,3473.00,600.22,583.27,27.84,0000 0000 0000 0000 000000
2018-07-10 11:33:32,0.00,0.17,0.00,28.82,31.96,34.40,13.57,46.70,1014.18,2008.00,3287.93,3020.97,3472.93,599.91,583.03,27.89,0000 0000 0000 0000 000000
2018-07-10 11:38:34,0.01,0.17,0.00,28.82,31.97,34.43,13.60,46.52,1014.18,2008.00,3287.44,3020.91,3472.58,599.94,583.00,27.94,0000 0000 0000 0000 000000
2018-07-10 11:43:35,0.02,0.17,0.00,28.82,32.00,34.44,13.63,46.68,1014.12,2007.98,3287.09,3020.54,3472.12,600.38,583.46,27.99,0000 0000 0000 0000 000000
2018-07-10 11:48:37,0.01,0.17,0.00,28.85,32.01,34.45,13.53,46.58,1013.81,2007.96,3286.99,3020.06,3472.00,599.74,582.51,28.04,0000 0000 0000 0000 000000
2018-07-10 11:53:37,-0.01,0.17,0.00,28.85,32.02,34.46,13.63,46.61,1013.69,2007.85,3286.97,3020.00,3472.00,600.17,583.04,28.09,0000 0000 0000 0000 000000
2018-07-10 11:58:38,0.01,0.17,0.00,28.85,32.03,34.47,13.60,46.65,1013.69,2007.85,3286.70,3020.00,3471.94,600.15,582.90,28.14,0000 0000 0000 0000 000000
2018-07-10 12:03:40,-0.02,0.17,0.00,28.84,32.05,34.50,13.52,46.63,1013.69,2007.62,3286.36,3019.99,3471.66,599.57,582.56,28.19,0000 0000 0000 0000 000000
2018-07-10 12:08:41,-0.02,0.17,0.00,28.82,32.06,34.51,13.66,46.70,1013.69,2007.32,3286.01,3019.91,3471.17,600.58,583.37,28.24,0000 0000 0000 0000 000000
2018-07-10 12:13:42,0.00,0.17,0.00,28.81,32.07,34.53,13.54,46.61,1013.69,2007.09,3286.00,3019.73,3471.00,599.85,582.87,28.29,0000 0000 0000 0000 000000
2018-07-10 12:18:44,0.00,0.17,0.00,28.80,32.07,34.54,13.56,46.61,1013.65,2007.06,3285.99,3019.54,3471.00,599.99,582.88,28.34,0000 0000 0000 0000 000000
2018-07-10 12:23:45,0.01,0.17,0.00,28.77,32.09,34.54,13.60,46.70,1013.23,2007.03,3285.87,3019.15,3470.98,599.50,582.21,28.39,0000 0000 0000 0000 000000
2018-07-10 12:28:46,0.00,0.17,0.00,28.76,32.10,34.56,13.60,46.63,1013.20,2007.01,3285.65,3019.04,3470.96,600.16,582.85,28.44,0000 0000 0000 0000 000000
2018-07-10 12:33:47,0.00,0.17,0.00,28.75,32.10,34.56,13.55,46.83,1013.19,2007.01,3285.26,3019.02,3470.88,599.77,582.68,28.49,0000 0000 0000 0000 000000
2018-07-10 12:38:48,0.01,0.17,0.00,28.73,32.10,34.56,13.59,46.95,1013.05,2007.00,3285.10,3019.01,3470.54,600.09,582.70,28.54,0000 0000 0000 0000 000000
2018-07-10 12:43:50,0.00,0.17,0.00,28.71,32.10,34.56,13.67,46.59,1012.84,2007.00,3285.01,3019.00,3470.16,600.71,583.36,28.59,0000 0000 0000 0000 000000
2018-07-10 12:48:51,0.00,0.17,0.00,28.70,32.10,34.57,13.59,46.70,1012.71,2007.00,3285.00,3019.00,3470.04,599.84,582.54,28.64,0000 0000 0000 0000 000000
2018-07-10 12:53:53,0.00,0.17,0.00,28.68,32.10,34.56,13.59,46.76,1012.69,2007.00,3284.99,3019.00,3470.01,599.55,582.24,28.69,0000 0000 0000 0000 000000